This demonstration page uses our WeatherBlox Daily Observations layout. Learn more.

Left ArrowRight Arrow

41.55636, -103.73856

Hourly Observations for March 23, 2021

Temp ( °F °C ) Dew Point ( °F °C ) Humidity (%) Winds ( mph kmh ) Pressure ( in mb ) Visibility ( mi km ) Precip ( " mm )
12:58 am 00:58 Clear 27 -2.8 19 -7.1 73 73 SW 13 20 29.88 1012 10 16 0.00 0.00
1:58 am 01:58 Clear 27 -2.9 19 -7.1 73 73 WSW 14 22 29.88 1012 10 16 0.00 0.00
2:58 am 02:58 Clear 25 -3.9 18 -7.8 75 75 W 5 7 29.86 1011 10 16 0.00 0.00
3:58 am 03:58 Clear 23 -4.8 18 -8 79 79 NW 9 15 29.85 1011 10 16 0.00 0.00
4:58 am 04:58 Clear 25 -4.1 20 -6.7 82 82 WNW 15 24 29.85 1011 10 16 0.00 0.00
5:58 am 05:58 Partly Cloudy 27 -3 24 -4.7 88 88 NW 18 30 29.86 1011 10 16 0.00 0.00
6:58 am 06:58 Mostly Cloudy 28 -2.5 25 -4.1 89 89 NNW 22 35 29.87 1012 10 16 0.00 0.00
7:58 am 07:58 Mostly Sunny 27 -2.9 24 -4.5 89 89 NNW 18 30 29.91 1013 10 16 0.00 0.00
8:58 am 08:58 Sunny 28 -2 25 -3.7 88 88 NNW 21 33 29.92 1013 10 16 0.00 0.00
9:58 am 09:58 Mostly Cloudy 31 -0.8 26 -3.1 85 85 N 18 30 29.94 1014 10 16 0.00 0.00
10:58 am 10:58 Mostly Cloudy 32 -0.1 27 -2.8 82 82 NNW 18 30 29.96 1015 10 16 0.00 0.00
11:58 am 11:58 Mostly Cloudy 33 0.3 28 -2.3 83 83 NNW 20 31 29.96 1015 10 16 0.00 0.00
12:58 pm 12:58 Mostly Sunny 33 0.5 28 -2.1 83 83 NNW 18 30 29.96 1015 10 16 0.00 0.00
1:58 pm 13:58 Mostly Cloudy 35 1.4 28 -2.3 77 77 NW 18 30 29.95 1014 10 16 0.00 0.00
2:58 pm 14:58 Mostly Cloudy with Light Snow Showers 33 0.5 29 -1.7 85 85 NW 18 30 29.95 1014 4 6 0.00 0.00
3:58 pm 15:58 Mostly Cloudy with Light Snow 33 0.6 30 -1 89 89 NW 22 35 29.96 1015 10 16 0.00 0.00
4:58 pm 16:58 Mostly Cloudy with Light Snow Showers 33 0.5 30 -1 90 90 NNW 17 28 29.99 1016 2 4 0.00 0.00
5:58 pm 17:58 Mostly Cloudy with Light Snow Showers 33 0.7 30 -0.9 89 89 N 10 17 30.01 1016 4 6 0.01 0.25
6:58 pm 18:58 Mostly Cloudy with Light Snow 32 0 30 -1 93 93 N 16 26 30.03 1017 1 2 0.01 0.25
7:58 pm 19:58 Mostly Cloudy with Light Snow 31 -0.5 30 -1.3 94 94 N 20 31 30.05 1018 7 11 0.00 0.00
8:58 pm 20:58 Mostly Cloudy 31 -0.4 29 -1.8 90 90 N 17 28 30.08 1019 10 16 0.01 0.25
9:58 pm 21:58 Cloudy with Light Snow Showers 31 -0.3 29 -1.7 90 90 N 17 28 30.09 1019 10 16 0.00 0.00
10:58 pm 22:58 Mostly Cloudy 31 -0.8 28 -2.2 90 90 N 17 28 30.11 1020 10 16 0.00 0.00
11:58 pm 23:58 Mostly Cloudy 31 -0.5 27 -2.9 84 84 N 16 26 30.10 1019 10 16 0.00 0.00

Powered by AerisWeather